Regional Weather Roundup
Issued by NWS Austin/San Antonio, TX

Current Version | Previous Version | Text Only | Print | Product List | Glossary On
Versions: 1 2 3 4 5 6 7 8 9 10 11 12 13 14 15 16 17 18 19 20 21 22 23 24 25 26 27 28 29 30 31 32 33 34 35 36 37 38 39 40 41 42 43 44 45 46 47 48 49 50
000
ASUS44 KEWX 241210
RWREWX
SOUTH TEXAS REGIONAL WEATHER ROUNDUP
NATIONAL WEATHER SERVICE AUSTIN/SAN ANTONIO TX
700 AM CDT THU MAY 24 2018

NOTE: "FAIR" INDICATED FEW OR NO CLOUDS BELOW 12,000 FEET WITH NO
SIGNIFICANT WEATHER AND/OR OBSTRUCTIONS TO VISIBILITY.

* - THESE STATIONS ARE NOT NWS OR FAA STATIONS...AND ARE NOT SUBJECT
    TO NWS AND FAA QUALITY CONTROL.

TXZ171-172-183>190-241300-
TEXAS HILL COUNTRY AND EDWARDS PLATEAU

CITY           SKY/WX    TMP DP  RH WIND       PRES   REMARKS
JUNCTION       CLOUDY    73  67  81 SE8       30.08R
6HR MIN TEMP:  72; 6HR MAX TEMP:  75;

*LLANO         CLEAR     70  70 100 CALM      30.09R
BURNET         CLOUDY    72  70  93 S6        30.08R
6HR MIN TEMP:  71; 6HR MAX TEMP:  73;

*HORSESHOE BAY CLOUDY    72  69  92 SE3       30.06R
6HR MIN TEMP:  71; 6HR MAX TEMP:  72;

*KERRVILLE     MOCLDY    72  68  89 SE5       30.07S
6HR MIN TEMP:  69; 6HR MAX TEMP:  73;

*FREDERICKSBRG CLOUDY    71  67  88 S3        30.08R
6HR MIN TEMP:  70; 6HR MAX TEMP:  71;

*ROCKSPRINGS   CLOUDY    70  66  88 SE9G15    30.13R
*BOERNE STAGE  CLOUDY    70  68  94 S3        30.08R
*CASTROVILLE   CLOUDY    73  73  97 CALM      30.05S
HONDO          CLOUDY    75  73  93 E7        30.04S
6HR MIN TEMP:  74; 6HR MAX TEMP:  76;

*UVALDE        PTCLDY    72  70  95 E8        30.05R
6HR MIN TEMP:  71; 6HR MAX TEMP:  75;

DEL RIO        CLOUDY    76  71  85 SE8       30.01R
6HR MIN TEMP:  75; 6HR MAX TEMP:  81;

LAUGHLIN AFB   CLOUDY    75  71  86 SE9       30.02R
6HR MIN TEMP:  74; 6HR MAX TEMP:  80;

CARRIZO SPRGS  MOCLDY    72  72 100 SE5       30.00R
*EAGLE PASS    CLOUDY    75  70  83 E8        30.02R
*FAITH RANCH   CLEAR     75  73  94 SE9G15    30.01R
$$

TXZ173-191>194-202-209-217>225-228-241300-
CENTRAL AND SOUTH CENTRAL TEXAS

CITY           SKY/WX    TMP DP  RH WIND       PRES   REMARKS
GEORGETOWN     MOCLDY    71  68  90 E3        30.07S
6HR MIN TEMP:  69; 6HR MAX TEMP:  73;

AUSTIN/BERGSTM FOG       71  69  93 E3        30.04S VSB 1/4
6HR MIN TEMP:  69; 6HR MAX TEMP:  73;

AUSTIN/MABRY   CLOUDY    74  71  91 VRB3      30.05S
6HR MIN TEMP:  73; 6HR MAX TEMP:  75;

*AUSTIN/EXEC   CLOUDY    68  68 100 CALM      30.06R FOG
*LAGO VISTA    CLOUDY    72  72  99 SE6       30.07S
6HR MIN TEMP:  72; 6HR MAX TEMP:  74;

SAN MARCOS     FOG       72  71  97 SE5       30.05S VSB 1/4
6HR MIN TEMP:  69; 6HR MAX TEMP:  72;

NEW BRAUNFELS  FOG       73  71  93 CALM      30.03S VSB 1
6HR MIN TEMP:  69; 6HR MAX TEMP:  73;

RANDOLPH AFB   FOG       73  72  97 SE6       30.04S VSB 1
6HR MIN TEMP:  70; 6HR MAX TEMP:  73;

PT SAN ANTONIO CLOUDY    74  72  91 SE6       30.02S
6HR MIN TEMP:  74; 6HR MAX TEMP:  76;

SAN ANTONIO    CLOUDY    73  70  90 SE9       30.04S
6HR MIN TEMP:  72; 6HR MAX TEMP:  76;

STINSON FIELD  CLOUDY    75  73  93 SE8       30.02S
6HR MIN TEMP:  75; 6HR MAX TEMP:  77;

*LA GRANGE     FOG       71  71 100 CALM      30.03R VSB 1/2
6HR MIN TEMP:  70; 6HR MAX TEMP:  73;

*GIDDINGS      MOCLDY    65  64  97 CALM      30.06R FOG
6HR MIN TEMP:  64; 6HR MAX TEMP:  69;

*GONZALES      CLOUDY    72  72 100 CALM      30.04S FOG
6HR MIN TEMP:  70; 6HR MAX TEMP:  74;

$$

TXZ163>164-176>182-195>201-210>213-226-227-235-241300-
SOUTHEAST TEXAS

CITY           SKY/WX    TMP DP  RH WIND       PRES   REMARKS
COLLEGE STN    MOCLDY    72  70  93 E3        30.06R
6HR MIN TEMP:  71; 6HR MAX TEMP:  73;

*BRYAN         PTCLDY    69  69 100 CALM      30.08R
6HR MIN TEMP:  68; 6HR MAX TEMP:  70;

*CALDWELL      CLOUDY    70  69  98 E3        30.06R FOG
6HR MIN TEMP:  68; 6HR MAX TEMP:  70;

*CROCKETT      CLOUDY    70  66  88 CALM      30.11S
*BRENHAM       PTCLDY    71  71  99 CALM      30.06R
6HR MIN TEMP:  70; 6HR MAX TEMP:  73;

HUNTSVILLE     CLOUDY    70  68  93 CALM      30.08R
6HR MIN TEMP:  68; 6HR MAX TEMP:  71; 6HR PCP: TRACE;

CONROE         MOCLDY    70  70 100 CALM      30.08R
6HR MIN TEMP:  67; 6HR MAX TEMP:  70;

HOUSTON BUSH   MOCLDY    72  70  93 CALM      30.06R
6HR MIN TEMP:  70; 6HR MAX TEMP:  72;

HOUSTON HOBBY  MOCLDY    73  73 100 NE6       30.05R
6HR MIN TEMP:  72; 6HR MAX TEMP:  75;

*HOUSTON SW AP CLOUDY    71  71  99 NE3       30.06R
6HR MIN TEMP:  69; 6HR MAX TEMP:  73;

PEARLAND       FAIR      73  73 100 E3        30.06R
6HR MIN TEMP:  72; 6HR MAX TEMP:  74;

HOUSTON HOOKS  FAIR      71  69  93 E3        30.06R
6HR MIN TEMP:  71; 6HR MAX TEMP:  73;

ELLINGTON FLD  MOCLDY    73  72  94 NE3       30.06R
SUGAR LAND     MOCLDY    75  71  87 NE7       30.05R
6HR MIN TEMP:  73; 6HR MAX TEMP:  78;

*HOUSTON EXEC    N/A     70  70 100 NE3       30.06R
*CLEVELAND MUN FAIR      68  67  96 CALM      30.08R FOG
6HR MIN TEMP:  67; 6HR MAX TEMP:  68;

*WHARTON       FOG       69  69  98 CALM      30.05R VSB 1/2
6HR MIN TEMP:  68; 6HR MAX TEMP:  73;

*COLUMBUS      FAIR      70  69  95 CALM      30.06R FOG
6HR MIN TEMP:  69; 6HR MAX TEMP:  72;

*EAGLE LAKE    CLOUDY    72  72 100 NE5       30.05R FOG
6HR MIN TEMP:  70; 6HR MAX TEMP:  74;

$$

TXZ214>216-236>238-241300-
THE UPPER TEXAS COAST

CITY           SKY/WX    TMP DP  RH WIND       PRES   REMARKS
*ORANGE        FAIR      69  69 100 CALM      30.07S FOG
6HR MIN TEMP:  68; 6HR MAX TEMP:  72;

PORT ARTHUR    MOCLDY    75  69  81 NE6       30.04R
6HR MIN TEMP:  72; 6HR MAX TEMP:  76;

GALVESTON      TSTM      76  74  93 E10       30.05R
6HR MIN TEMP:  76; 6HR MAX TEMP:  79; 6HR PCP:  0.03;

ANGLETON       FAIR      72  71  97 N3        30.04R
6HR MIN TEMP:  71; 6HR MAX TEMP:  75;

*BAY CITY      CLEAR     72  72 100 CALM      30.03R FOG
PALACIOS       PTCLDY    73  73 100 NE5       30.02R
6HR MIN TEMP:  73; 6HR MAX TEMP:  78; 6HR PCP: TRACE;

$$

TXZ229>234-239>247-241300-
TEXAS COASTAL BEND AND RIO GRANDE PLAINS

CITY           SKY/WX    TMP DP  RH WIND       PRES   REMARKS
VICTORIA       FOG       69  68  96 CALM      30.03R VSB 1/4
6HR MIN TEMP:  69; 6HR MAX TEMP:  73;

*BEEVILLE      FOG       72  72 100 NE3       30.02S VSB<1/4
6HR MIN TEMP:  71; 6HR MAX TEMP:  73;

ROCKPORT       PTCLDY    79  74  84 CALM      30.01R
6HR MIN TEMP:  78; 6HR MAX TEMP:  80;

*PORT ARANSAS  NOT AVBL
*PORT LAVACA   PTCLDY    73  71  95 N3        30.03R FOG
6HR MIN TEMP:  72; 6HR MAX TEMP:  76;

*INGLESIDE     PTCLDY    78  75  89 CALM      30.00S
CORPUS CHRISTI PTCLDY    72  72 100 SE3       30.00S
6HR MIN TEMP:  72; 6HR MAX TEMP:  76;

CORPUS NAS     MOCLDY    78  77  96 SE6       30.00S
6HR MIN TEMP:  78; 6HR MAX TEMP:  81;

*ROBSTOWN      PTCLDY    72  72  98 CALM      30.01S
6HR MIN TEMP:  72; 6HR MAX TEMP:  76;

ALICE          FOG       73  72  96 NE3       30.01R VSB<1/4
6HR MIN TEMP:  70; 6HR MAX TEMP:  74;

KINGSVILLE NAS FOG       74  73  97 CALM      30.00S VSB 1
6HR MIN TEMP:  72; 6HR MAX TEMP:  76; 6HR PCP: TRACE;

COTULLA        PTCLDY    74  73  97 SE8       30.01S
6HR MIN TEMP:  74; 6HR MAX TEMP:  78;

LAREDO         CLEAR     75  72  90 SE9       30.01S
6HR MIN TEMP:  75; 6HR MAX TEMP:  81;

$$

TXZ248>255-241300-
DEEP SOUTH TEXAS

CITY           SKY/WX    TMP DP  RH WIND       PRES   REMARKS
BROWNSVILLE    FAIR      76  75  97 CALM      30.00R
6HR MIN TEMP:  76; 6HR MAX TEMP:  79;

PORT ISABEL    FAIR      78  73  84 E3        29.99R
6HR MIN T



USA.gov is the U.S. government's official web portal to all federal, state and local government web resources and services.